This demonstration page uses our WeatherBlox Daily Observations layout. Learn more.

Left ArrowRight Arrow

Hourly Observations for May 31, 2020

Temp ( °F °C ) Dew Point ( °F °C ) Humidity (%) Winds ( mph kmh ) Pressure ( in mb ) Visibility ( mi km ) Precip ( " mm )
12:51 am 00:51 Clear 81 27.2 41 5 24 24 Calm 29.72 1007 10 16.0934 0 0
1:51 am 01:51 Clear 75 23.9 40 4.4 28 28 ENE 6 9 29.73 1007 10 16.0934 0 0
2:51 am 02:51 undefined 76 24.4 40 4.4 27 27 E 3 6 29.73 1007 10 16.0934 0 0
3:51 am 03:51 Clear 81 27.2 37 2.8 21 21 E 14 22 29.75 1008 10 16.0934 0 0
4:51 am 04:51 Clear 80 26.7 35 1.7 20 20 ESE 13 20 29.78 1008 10 16.0934 0 0
5:51 am 05:51 Sunny 81 27.2 34 1.1 18 18 ESE 12 19 29.81 1009 10 16.0934 0 0
6:51 am 06:51 Sunny 80 26.7 38 3.3 22 22 SSE 10 17 29.83 1010 10 16.0934 0 0
7:51 am 07:51 Sunny 84 28.9 37 2.8 19 19 SSE 13 20 29.84 1011 10 16.0934 0 0
8:51 am 08:51 Sunny 88 31.1 37 2.8 16 16 SSE 14 22 29.83 1010 10 16.0934 0 0
9:51 am 09:51 Sunny 92 33.3 38 3.3 15 15 SE 10 17 29.83 1010 10 16.0934 0 0
10:51 am 10:51 Sunny 96 35.6 39 3.9 14 14 SE 12 19 29.81 1009 10 16.0934 0 0
11:51 am 11:51 Sunny 98 36.7 38 3.3 12 12 SSE 16 26 29.78 1009 10 16.0934 0 0
12:51 pm 12:51 Sunny 101 38.3 37 2.8 11 11 S 16 26 29.75 1008 10 16.0934 0 0
1:51 pm 13:51 Sunny 103 39.4 36 2.2 10 10 SSE 16 26 29.73 1007 10 16.0934 0 0
2:51 pm 14:51 Sunny 101 38.3 34 1.1 10 10 Calm 29.7 1006 10 16.0934 0 0
3:51 pm 15:51 Sunny 102 38.9 33 0.6 9 9 E 10 17 29.66 1004 10 16.0934 0 0
4:51 pm 16:51 Sunny 102 38.9 32 0 9 9 SSE 16 26 29.65 1004 10 16.0934 0 0
5:51 pm 17:51 Sunny 100 37.8 31 -0.6 9 9 SE 13 20 29.64 1004 10 16.0934 0 0
6:51 pm 18:51 Sunny 96 35.6 31 -0.6 10 10 SE 8 13 29.66 1004 10 16.0934 0 0
7:29 pm 19:29 Clear 90 32.2 45 7.2 21 21 WNW 15 24 29.61 1003 10 16.0934 0 0
7:51 pm 19:51 Clear 89 31.7 45 7.2 22 22 NW 14 22 29.69 1006 10 16.0934 0 0
8:51 pm 20:51 Clear 87 30.6 45 7.2 23 23 NW 12 19 29.73 1007 10 16.0934 0 0
9:51 pm 21:51 Clear 84 28.9 45 7.2 25 25 NW 8 13 29.75 1008 10 16.0934 0 0
10:51 pm 22:51 Clear 81 27.2 43 6.1 26 26 Calm 29.76 1008 10 16.0934 0 0
11:51 pm 23:51 Clear 79 26.1 42 5.6 27 27 W 6 9 29.77 1008 10 16.0934 0 0

Powered by AerisWeather